Location: Asheville, NC
(35.6000°N, 82.5500°W)
Time: 01:44:14
(UTC-04:00)

CUTE-I - Pass Details

Date: 10 January 2018
Orbit: 812 x 824 km, 98.7° (Epoch: 20 July)

Event Time Altitude Azimuth Distance (km) Brightness Sun altitude
Rises 18:47:09 0° 188° (S) 3,330 ? -14.3°
Reaches altitude 10° 18:49:41 10° 198° (SSW) 2,400 ? -14.8°
Maximum altitude 18:54:29 34° 262° (W) 1,310 ? -15.7°
Drops below altitude 10° 18:59:18 10° 327° (NNW) 2,407 ? -16.7°
Sets 19:01:51 0° 337° (NNW) 3,341 ? -17.2°
